Location: El Bakhil
(32.7726°N, 5.5387°W)
Time: 10:31:31
(UTC+00:00)

Cosmos 44 Rocket - Pass Details

Date: 03 March 2021
Orbit: 636 x 754 km, 65.1° (Epoch: 15 April)

Event Time Altitude Azimuth Distance (km) Brightness Sun altitude
Rises 20:03:40 0° 327° (NNW) 3,207 7.3 -22.3°
Reaches altitude 10° 20:06:06 10° 323° (NW) 2,277 6.5 -22.8°
Maximum altitude 20:11:12 55° 246° (WSW) 889 4.0 -23.9°
Enters shadow 20:14:17 23° 177° (S) 1,539 4.9 -24.5°
